Weather History for Miami, FL

Change the Weather History Date:

Tuesday, May 6, 2014

  Actual Average Record
Temperature  
Mean Temperature 78 °F 79 °F  
Max Temperature 86 °F 86 °F 93 °F (2010)
Min Temperature 69 °F 71 °F 53 °F (1945)
Degree Days  
Heating Degree Days 0 0  
Month to date heating degree days 0 0  
Since 1 July heating degree days 61 128  
Cooling Degree Days 13 14  
Month to date cooling degree days 91 79  
Year to date cooling degree days 1172 972  
Growing Degree Days 28 (Base 50)    
Moisture  
Dew Point 63 °F    
Average Humidity 61    
Maximum Humidity 73    
Minimum Humidity 48    
Precipitation  
Precipitation 0.00 in 0.11 in 3.19 in (1925)
Month to date precipitation 0.29 0.64  
Year to date precipitation 7.15 10.65  
Snow  
Snow 0.00 in - - ()
Month to date snowfall 0.0  
Since 1 July snowfall 0.0  
Snow Depth 0.00 in    
Sea Level Pressure  
Sea Level Pressure 30.02 in    
Wind  
Wind Speed 8 mph (East)    
Max Wind Speed 17 mph    
Max Gust Speed 22 mph    
Visibility 10 miles    
Events      
T = Trace of Precipitation, MM = Missing Value Source: NWS Daily Summary

Daily Weather History Graph

Daily Weather History Graph

Search for Another Location

Airport:

Trip Planner

Search our weather history database for the weather conditions in past years. The results will help you decide how hot, cold, wet, or windy it might be!

Date:

Astronomy

May. 06, 2014 Rise Set
Actual Time 6:40 AM EDT 7:55 PM EDT
Civil Twilight 6:16 AM EDT 8:19 PM EDT
Nautical Twilight 5:47 AM EDT 8:48 PM EDT
Astronomical Twilight 5:17 AM EDT 9:18 PM EDT
Moon 12:48 PM EDT (5/6) 1:18 AM EDT (5/6)
Length of Visible Light 14h 03m
Length of Day
13h 14m
Waxing Crescent, 46% of the Moon is Illuminated
May 6
Waxing Crescent
May 6
First Quarter
May 14
Full
May 21
Last Quarter
May 28
New

Hourly Weather History & Observations

Time (EDT) Temp. Heat Index Dew Point Humidity Pressure Visibility Wind Dir Wind Speed Gust Speed Precip Events Conditions
12:53 AM 73.0 °F - 62.1 °F 68% 30.04 in 10.0 mi East 4.6 mph - N/A   Partly Cloudy
1:53 AM 73.9 °F - 62.1 °F 66% 30.02 in 10.0 mi East 5.8 mph - N/A   Partly Cloudy
2:53 AM 73.0 °F - 62.1 °F 68% 30.00 in 10.0 mi ESE 4.6 mph - N/A   Partly Cloudy
3:53 AM 72.0 °F - 61.0 °F 68% 29.99 in 10.0 mi Calm Calm - N/A   Partly Cloudy
7:53 AM 75.9 °F - 64.0 °F 67% 30.03 in 10.0 mi North 3.5 mph - N/A   Partly Cloudy
8:53 AM 79.0 °F - 63.0 °F 58% 30.04 in 10.0 mi Calm Calm - N/A   Partly Cloudy
9:53 AM 81.0 °F 82.5 °F 64.0 °F 56% 30.04 in 10.0 mi East 5.8 mph - N/A   Scattered Clouds
10:53 AM 82.0 °F 83.1 °F 63.0 °F 52% 30.05 in 10.0 mi ENE 9.2 mph - N/A   Partly Cloudy
11:53 AM 84.0 °F 84.9 °F 63.0 °F 49% 30.05 in 10.0 mi East 12.7 mph - N/A   Partly Cloudy
12:53 PM 84.0 °F 84.9 °F 63.0 °F 49% 30.04 in 10.0 mi East 9.2 mph - N/A   Partly Cloudy
1:53 PM 84.9 °F 85.9 °F 63.0 °F 48% 30.03 in 10.0 mi East 10.4 mph - N/A   Partly Cloudy
2:53 PM 84.9 °F 85.9 °F 63.0 °F 48% 30.01 in 10.0 mi East 9.2 mph 18.4 mph N/A   Partly Cloudy
3:53 PM 84.0 °F 84.9 °F 63.0 °F 49% 30.00 in 10.0 mi ENE 12.7 mph - N/A   Partly Cloudy
4:53 PM 84.0 °F 84.9 °F 63.0 °F 49% 29.99 in 10.0 mi ENE 12.7 mph - N/A   Partly Cloudy
5:53 PM 82.9 °F 84.4 °F 64.0 °F 53% 30.00 in 10.0 mi East 10.4 mph 21.9 mph N/A   Partly Cloudy
6:53 PM 81.0 °F 82.7 °F 64.9 °F 58% 30.00 in 10.0 mi East 9.2 mph - N/A   Partly Cloudy
7:53 PM 79.0 °F - 64.9 °F 62% 30.01 in 10.0 mi East 12.7 mph - N/A   Partly Cloudy
8:53 PM 78.1 °F - 64.9 °F 64% 30.02 in 10.0 mi East 13.8 mph - N/A   Clear
9:53 PM 78.1 °F - 64.0 °F 62% 30.03 in 10.0 mi East 12.7 mph - N/A   Partly Cloudy
10:53 PM 78.1 °F - 63.0 °F 60% 30.04 in 10.0 mi East 12.7 mph - N/A   Partly Cloudy
11:53 PM 78.1 °F - 66.0 °F 66% 30.04 in 10.0 mi East 10.4 mph - N/A   Partly Cloudy